Regional Weather Roundup
Issued by NWS Goodland, KS

Home | Current Version | Previous Version | Graphics & Text | Print | Product List | Glossary On
Versions: 1 2 3 4 5 6 7 8 9 10 11 12 13 14 15 16 17 18 19 20 21 22 23 24 25 26 27 28 29 30 31 32 33 34 35 36 37 38 39 40 41 42 43 44 45 46 47 48 49 50
000
ASUS43 KGLD 290308
RWRGLD

GOODLAND FORECAST AREA HOURLY WEATHER ROUNDUP
NATIONAL WEATHER SERVICE GOODLAND KS
900 PM MDT THU APR 28 2016

...OFFICIAL OBSERVATIONS...

CITY           SKY/WX    TMP DP  RH WIND       PRES   REMARKS
GOODLAND KS    MOCLDY    43  37  79 NE10      30.05R
HILL CITY KS   CLOUDY    50  43  77 NE8       30.08R
IMPERIAL NEB   CLOUDY    44  39  82 N3        30.08R
MCCOOK NEB     CLOUDY    45  39  79 NE6       30.09R
AKRON CO       CLOUDY    38  33  82 NE6       30.06R
BURLINGTON CO  CLOUDY    44  36  73 NE15      30.04R
LIMON CO       CLOUDY    37  33  85 NE13      30.02R
$$

...UNOFFICIAL OBSERVATIONS...

CITY           SKY/WX    TMP DP  RH WIND       PRES   REMARKS
COLBY KS       PTCLDY    45  45 100 NE7       30.08R
GOVE KS          N/A     47  32  56 MISG        N/A
LENORA KS        N/A     47  32  56 MISG        N/A
NORTON KS      CLOUDY    48  39  71 N7        30.08R
SHARON SPRINGS   N/A     48  39  71 NE14        N/A
KIT CARSON CO    N/A     44  34  68 MISG        N/A
YUMA CO          N/A     40  36  85 NE5         N/A
$$




USA.gov is the U.S. government's official web portal to all federal, state and local government web resources and services.